TimeCST,TemperatureF,Dew PointF,Humidity,Sea Level PressureIn,VisibilityMPH,Wind Direction,Wind SpeedMPH,Gust SpeedMPH,PrecipitationIn,Events,Conditions,WindDirDegrees,DateUTC
12:15 AM,46.4,37.4,71,30.30,10.0,Calm,Calm,-,N/A,,Clear,0,2012-11-20 06:15:00
12:35 AM,48.2,37.4,66,30.29,10.0,Calm,Calm,-,N/A,,Clear,0,2012-11-20 06:35:00
12:55 AM,51.8,39.2,62,30.29,10.0,Calm,Calm,-,N/A,,Clear,0,2012-11-20 06:55:00
1:15 AM,51.8,39.2,62,30.29,10.0,Calm,Calm,-,N/A,,Clear,0,2012-11-20 07:15:00
1:35 AM,48.2,37.4,66,30.29,10.0,Calm,Calm,-,N/A,,Clear,0,2012-11-20 07:35:00
1:55 AM,48.2,37.4,66,30.29,10.0,Calm,Calm,-,N/A,,Clear,0,2012-11-20 07:55:00
2:15 AM,46.4,37.4,71,30.29,10.0,Calm,Calm,-,N/A,,Clear,0,2012-11-20 08:15:00
2:35 AM,46.4,37.4,71,30.29,10.0,Calm,Calm,-,N/A,,Clear,0,2012-11-20 08:35:00
2:55 AM,44.6,35.6,71,30.29,10.0,Calm,Calm,-,N/A,,Clear,0,2012-11-20 08:55:00
3:15 AM,44.6,35.6,71,30.29,10.0,Calm,Calm,-,N/A,,Clear,0,2012-11-20 09:15:00
3:35 AM,42.8,35.6,76,30.29,10.0,Calm,Calm,-,N/A,,Clear,0,2012-11-20 09:35:00
3:55 AM,42.8,35.6,76,30.29,10.0,Calm,Calm,-,N/A,,Clear,0,2012-11-20 09:55:00
4:15 AM,42.8,35.6,76,30.29,10.0,Calm,Calm,-,N/A,,Clear,0,2012-11-20 10:15:00
4:35 AM,44.6,35.6,71,30.29,10.0,Calm,Calm,-,N/A,,Clear,0,2012-11-20 10:35:00
4:55 AM,44.6,35.6,71,30.28,10.0,Calm,Calm,-,N/A,,Clear,0,2012-11-20 10:55:00
5:15 AM,44.6,35.6,71,30.28,10.0,Calm,Calm,-,N/A,,Clear,0,2012-11-20 11:15:00
5:35 AM,42.8,35.6,76,30.28,10.0,Calm,Calm,-,N/A,,Clear,0,2012-11-20 11:35:00
6:15 AM,39.2,33.8,81,30.30,10.0,Calm,Calm,-,N/A,,Clear,0,2012-11-20 12:15:00
6:35 AM,41.0,35.6,81,30.30,10.0,Calm,Calm,-,N/A,,Clear,0,2012-11-20 12:35:00
6:55 AM,39.2,33.8,81,30.31,10.0,Calm,Calm,-,N/A,,Clear,0,2012-11-20 12:55:00
7:15 AM,37.4,32.0,81,30.31,10.0,Calm,Calm,-,N/A,,Clear,0,2012-11-20 13:15:00
7:35 AM,37.4,33.8,87,30.32,10.0,Calm,Calm,-,N/A,,Clear,0,2012-11-20 13:35:00
7:55 AM,39.2,35.6,87,30.32,10.0,Calm,Calm,-,N/A,,Clear,0,2012-11-20 13:55:00
8:15 AM,42.8,35.6,76,30.34,10.0,Calm,Calm,-,N/A,,Clear,0,2012-11-20 14:15:00
8:35 AM,46.4,37.4,71,30.34,10.0,Calm,Calm,-,N/A,,Clear,0,2012-11-20 14:35:00
8:55 AM,51.8,37.4,58,30.34,10.0,Calm,Calm,-,N/A,,Clear,0,2012-11-20 14:55:00
9:15 AM,55.4,39.2,54,30.35,10.0,Calm,Calm,-,N/A,,Clear,0,2012-11-20 15:15:00
9:35 AM,57.2,39.2,51,30.35,10.0,Calm,Calm,-,N/A,,Clear,0,2012-11-20 15:35:00
9:55 AM,60.8,39.2,45,30.35,10.0,Calm,Calm,-,N/A,,Clear,0,2012-11-20 15:55:00
10:15 AM,62.6,41.0,45,30.35,10.0,Calm,Calm,-,N/A,,Clear,0,2012-11-20 16:15:00
10:35 AM,64.4,39.2,40,30.35,10.0,Calm,Calm,-,N/A,,Clear,0,2012-11-20 16:35:00
10:55 AM,64.4,39.2,40,30.35,10.0,Calm,Calm,-,N/A,,Clear,0,2012-11-20 16:55:00
11:15 AM,66.2,41.0,40,30.35,10.0,Calm,Calm,-,N/A,,Clear,0,2012-11-20 17:15:00
11:35 AM,66.2,41.0,40,30.34,10.0,Calm,Calm,-,N/A,,Clear,0,2012-11-20 17:35:00
11:55 AM,66.2,41.0,40,30.33,10.0,Calm,Calm,-,N/A,,Clear,0,2012-11-20 17:55:00
12:15 PM,69.8,42.8,38,30.32,10.0,ESE,4.6,-,N/A,,Clear,120,2012-11-20 18:15:00
12:35 PM,69.8,41.0,35,30.31,10.0,Calm,Calm,-,N/A,,Clear,0,2012-11-20 18:35:00
12:55 PM,69.8,42.8,38,30.30,10.0,Calm,Calm,-,N/A,,Clear,0,2012-11-20 18:55:00
1:15 PM,69.8,41.0,35,30.29,10.0,Calm,Calm,-,N/A,,Clear,0,2012-11-20 19:15:00
1:35 PM,69.8,41.0,35,30.28,10.0,Calm,Calm,-,N/A,,Clear,0,2012-11-20 19:35:00
1:55 PM,69.8,42.8,38,30.27,10.0,Calm,Calm,-,N/A,,Clear,0,2012-11-20 19:55:00
2:15 PM,69.8,42.8,38,30.26,10.0,SSE,9.2,-,N/A,,Clear,160,2012-11-20 20:15:00
2:35 PM,69.8,42.8,38,30.25,10.0,Calm,Calm,-,N/A,,Scattered Clouds,0,2012-11-20 20:35:00
2:55 PM,71.6,42.8,35,30.25,10.0,South,10.4,-,N/A,,Mostly Cloudy,170,2012-11-20 20:55:00
3:15 PM,69.8,42.8,38,30.25,10.0,SSE,10.4,-,N/A,,Partly Cloudy,150,2012-11-20 21:15:00
3:35 PM,69.8,42.8,38,30.24,10.0,South,8.1,-,N/A,,Partly Cloudy,190,2012-11-20 21:35:00
3:55 PM,69.8,42.8,38,30.24,10.0,Calm,Calm,-,N/A,,Partly Cloudy,0,2012-11-20 21:55:00
4:15 PM,69.8,42.8,38,30.24,10.0,Calm,Calm,-,N/A,,Clear,0,2012-11-20 22:15:00
4:35 PM,69.8,42.8,38,30.24,10.0,Calm,Calm,-,N/A,,Clear,0,2012-11-20 22:35:00
4:55 PM,69.8,41.0,35,30.24,10.0,Calm,Calm,-,N/A,,Clear,0,2012-11-20 22:55:00
5:15 PM,68.0,41.0,37,30.24,10.0,Calm,Calm,-,N/A,,Clear,0,2012-11-20 23:15:00
5:35 PM,66.2,41.0,40,30.24,10.0,Calm,Calm,-,N/A,,Clear,0,2012-11-20 23:35:00
5:55 PM,64.4,39.2,40,30.25,10.0,Calm,Calm,-,N/A,,Clear,0,2012-11-20 23:55:00
6:15 PM,62.6,39.2,42,30.25,10.0,Calm,Calm,-,N/A,,Clear,0,2012-11-21 00:15:00
6:35 PM,60.8,37.4,42,30.26,10.0,Calm,Calm,-,N/A,,Clear,0,2012-11-21 00:35:00
6:55 PM,60.8,37.4,42,30.26,10.0,ENE,10.4,-,N/A,,Clear,60,2012-11-21 00:55:00
7:15 PM,60.8,35.6,39,30.27,10.0,ENE,8.1,-,N/A,,Clear,60,2012-11-21 01:15:00
7:35 PM,60.8,35.6,39,30.28,10.0,ENE,9.2,-,N/A,,Clear,60,2012-11-21 01:35:00
7:55 PM,60.8,35.6,39,30.28,10.0,ENE,9.2,-,N/A,,Clear,60,2012-11-21 01:55:00
8:15 PM,57.2,35.6,44,30.28,10.0,NE,6.9,-,N/A,,Clear,40,2012-11-21 02:15:00
8:35 PM,57.2,35.6,44,30.29,10.0,NE,8.1,-,N/A,,Clear,40,2012-11-21 02:35:00
8:55 PM,57.2,35.6,44,30.29,10.0,NE,9.2,-,N/A,,Clear,40,2012-11-21 02:55:00
9:15 PM,57.2,35.6,44,30.29,10.0,Calm,Calm,-,N/A,,Clear,0,2012-11-21 03:15:00
9:35 PM,55.4,35.6,47,30.29,10.0,Calm,Calm,-,N/A,,Clear,0,2012-11-21 03:35:00
9:55 PM,53.6,35.6,51,30.30,10.0,Calm,Calm,-,N/A,,Clear,0,2012-11-21 03:55:00
10:15 PM,53.6,35.6,51,30.30,10.0,Calm,Calm,-,N/A,,Clear,0,2012-11-21 04:15:00
10:35 PM,51.8,33.8,50,30.29,10.0,Calm,Calm,-,N/A,,Clear,0,2012-11-21 04:35:00
10:55 PM,51.8,33.8,50,30.29,10.0,Calm,Calm,-,N/A,,Clear,0,2012-11-21 04:55:00
11:15 PM,51.8,33.8,50,30.29,10.0,Calm,Calm,-,N/A,,Clear,0,2012-11-21 05:15:00
11:35 PM,51.8,33.8,50,30.28,10.0,Calm,Calm,-,N/A,,Clear,0,2012-11-21 05:35:00
11:55 PM,48.2,33.8,58,30.28,10.0,Calm,Calm,-,N/A,,Clear,0,2012-11-21 05:55:00